📊 Raw Sensor Data
Showing records 43701 to 43725 of 85,022 total
| ID | Distance (ft) | Battery V | Battery A | Int Temp (°F) | Int Humid (%) | Ext Temp (°F) | Solar V | RSSI | SNR | Time Stamp |
|---|---|---|---|---|---|---|---|---|---|---|
| 41334 | 15.3 | 3.94 | 0 | 84 | 42 | 81 | 5.10 | -68 | 7 | 05/22/2025 12:30 PM |
| 41333 | 15.3 | 3.96 | 0 | 83 | 43 | 80 | 5.10 | -68 | 8 | 05/22/2025 12:15 PM |
| 41332 | 15.4 | 3.94 | 0 | 82 | 43 | 82 | 5.10 | -69 | 7 | 05/22/2025 12:00 PM |
| 41331 | 15.4 | 4.08 | 0 | 81 | 42 | 80 | 5.10 | -69 | 7 | 05/22/2025 11:30 AM |
| 41330 | 15.4 | 3.94 | 0 | 80 | 42 | 82 | 5.10 | -70 | 8 | 05/22/2025 11:15 AM |
| 41329 | 15.4 | 3.96 | 0 | 79 | 42 | 80 | 5.10 | -69 | 7 | 05/22/2025 11:00 AM |
| 41328 | 15.4 | 3.94 | 0 | 78 | 42 | 78 | 5.10 | -69 | 8 | 05/22/2025 10:45 AM |
| 41327 | 15.4 | 3.94 | 0 | 78 | 42 | 78 | 5.10 | -69 | 8 | 05/22/2025 10:45 AM |
| 41326 | 15.5 | 3.94 | 0 | 77 | 42 | 76 | 5.10 | -67 | 8 | 05/22/2025 10:30 AM |
| 41325 | 15.4 | 3.94 | 0 | 76 | 42 | 79 | 5.10 | -70 | 8 | 05/22/2025 10:15 AM |
| 41324 | 15.5 | 3.94 | 0 | 75 | 42 | 80 | 5.10 | -68 | 7 | 05/22/2025 10:00 AM |
| 41323 | 15.5 | 4.12 | 0 | 74 | 43 | 72 | 5.10 | -69 | 7 | 05/22/2025 09:45 AM |
| 41322 | 15.5 | 3.94 | 0 | 73 | 43 | 76 | 5.10 | -66 | 8 | 05/22/2025 09:30 AM |
| 41321 | 15.5 | 3.94 | 0 | 72 | 42 | 77 | 5.10 | -67 | 7 | 05/22/2025 09:00 AM |
| 41320 | 15.5 | 3.95 | 0 | 70 | 43 | 77 | 5.10 | -69 | 7 | 05/22/2025 08:45 AM |
| 41319 | 15.5 | 3.94 | 0 | 68 | 43 | 71 | 5.10 | -68 | 7 | 05/22/2025 08:30 AM |
| 41318 | 15.5 | 3.94 | 0 | 67 | 43 | 71 | 5.10 | -68 | 7 | 05/22/2025 08:15 AM |
| 41317 | 15.5 | 3.94 | 0 | 65 | 42 | 72 | 5.10 | -69 | 8 | 05/22/2025 08:00 AM |
| 41316 | 15.5 | 3.94 | 0 | 64 | 42 | 70 | 5.10 | -68 | 7 | 05/22/2025 07:45 AM |
| 41315 | 15.4 | 4.09 | 38 | 63 | 41 | 66 | 4.50 | -66 | 9 | 05/22/2025 07:30 AM |
| 41314 | 15.4 | 3.97 | 23 | 61 | 41 | 67 | 4.50 | -68 | 7 | 05/22/2025 07:15 AM |
| 41313 | 15.4 | 3.91 | -15 | 60 | 41 | 68 | 4.50 | -67 | 8 | 05/22/2025 07:00 AM |
| 41312 | 15.3 | 3.89 | 0 | 58 | 41 | 64 | 4.50 | -70 | 8 | 05/22/2025 06:45 AM |
| 41311 | 15.3 | 3.88 | 0 | 55 | 41 | 62 | 4.50 | -67 | 8 | 05/22/2025 06:30 AM |
| 41310 | 15.2 | 3.94 | 0 | 53 | 42 | 59 | 4.50 | -68 | 8 | 05/22/2025 06:15 AM |